Location: Aciu?a
(46.2833°N, 22.4500°E)
Time: 23:56:38
(UTC+00:00)

Daily predictions for brighter satellites

Satellite Brightness Start Highest point End
(mag) Time Altitude Azimuth Time Altitude Azimuth Time Altitude Azimuth
NOSS 2-3 (C) 4.2 15:50:38 10° S 15:54:18 35° ESE 15:58:25 10° NE
Cosmos 1953 2.3 15:50:59 10° S 15:55:02 79° E 15:59:06 10° NNE
CORIOLIS 4.2 15:53:25 10° SSE 15:58:45 85° ENE 16:04:08 10° NNW
Lacrosse 4 Rocket 2.0 15:56:36 10° NNW 16:00:40 38° NE 16:04:47 10° ESE
SL-16 R/B 2.5 15:56:53 10° S 16:02:15 46° ESE 16:07:39 10° NE
Cosmos 2251 Rocket 4.4 15:58:22 10° N 16:02:56 29° ENE 16:07:27 10° ESE
CZ-2C R/B 4.0 15:57:20 10° S 16:03:05 60° W 16:08:42 10° NNW
Cosmos 1821 Rocket 4.1 15:56:43 10° S 16:03:07 86° E 16:09:29 10° N
Cosmos 1544 Rocket 4.0 16:01:41 10° SSE 16:05:53 41° E 16:10:05 10° NNE
NOSS 2 (A) 4.2 16:03:08 10° NNW 16:05:54 58° NE 16:08:19 10° SE
Cosmos 1300 3.1 16:03:25 10° SSE 16:06:57 38° E 16:10:31 10° NNE
SL-19 R/B 4.5 16:01:33 10° NNE 16:07:03 51° ESE 16:12:27 10° S
BREEZE M DEB (TANK) 4.5 16:07:29 10° W 16:11:31 64° S 16:36:39 10° ESE
Meteor 1-16 Rocket 4.4 16:06:18 10° SSW 16:12:11 83° W 16:17:57 10° N
Cosmos 1934 Rocket 4.0 16:06:29 10° SSE 16:12:24 56° E 16:18:17 10° NNE
Cosmos 2322 Rocket 2.6 16:08:33 10° S 16:13:48 43° ESE 16:19:05 10° NE
Cosmos 2219 Rocket 3.9 16:18:07 10° ESE 16:19:32 11° E 16:19:32 11° E
Iridium 4 Rocket 3.4 16:17:16 10° N 16:21:56 59° E 16:27:02 10° SSE
deb Chang Zheng 4 3.4 16:18:05 10° SSE 16:22:17 80° ENE 16:26:32 10° NNW
Cosmos 2360 Rocket 2.9 16:18:00 10° SSE 16:22:53 31° ESE 16:27:48 10° NE
Cosmos 614 Rocket 4.3 16:18:14 10° N 16:23:05 42° ENE 16:27:54 10° SE
Cosmos 304 Rocket 4.0 16:18:57 10° S 16:23:31 47° ESE 16:28:07 10° NNE
Cosmos 1844 4.4 16:18:27 10° NNW 16:23:45 35° NE 16:28:58 10° ESE
Okean O Rocket 1.6 16:20:41 10° SSE 16:24:55 57° ENE 16:29:13 10° N
NOSS 8 (E) 4.3 16:21:31 10° SW 16:24:56 76° NW 16:27:55 10° NE
Cosmos 839 Rocket 4.3 16:18:08 10° NNW 16:25:54 71° NE 16:32:16 10° SE
CZ-4C R/B 3.6 16:23:01 10° NNE 16:26:01 30° E 16:28:55 10° SSE
ARGOS 3.3 16:22:33 10° SE 16:27:46 53° ENE 16:33:02 10° N
Cosmos 2344 4.3 16:19:12 10° NW 16:28:03 64° NE 16:40:17 10° SE
CZ-4 R/B 2.3 16:27:06 10° SE 16:30:34 28° ENE 16:34:07 10° N
Cosmos 1602 Rocket 3.9 16:26:50 10° N 16:30:59 42° ENE 16:35:04 10° SSE
Meteor 1-4 Rocket 2.8 16:28:45 10° SSE 16:32:00 40° E 16:35:16 10° NNE
Cosmos 2333 Rocket 3.5 16:29:30 10° SE 16:33:22 19° E 16:35:06 17° ENE
Cosmos 405 Rocket 4.3 16:31:54 10° NNW 16:35:41 40° W 16:39:28 10° SSW
FALCON 9 DEB 4.4 16:34:03 10° S 16:36:10 18° SE 16:36:30 18° SE
COSMO-SKYMED 1 2.5 16:33:18 10° NNE 16:37:40 69° ESE 16:41:58 10° S
CZ-4B R/B 3.3 16:33:05 10° SSE 16:38:46 86° WSW 16:44:28 10° NNW
Cosmos 2263 Rocket 3.7 16:35:13 10° NW 16:40:20 38° WSW 16:45:25 10° S
In-Cosmos 22 Rocket 4.2 16:36:20 10° N 16:41:30 49° ENE 16:46:38 10° SSE
Okean 1-7 Rocket 3.9 16:38:00 10° NNW 16:42:24 71° W 16:46:50 10° S
Cosmos 2123 Rocket 4.1 16:36:28 10° N 16:42:49 82° W 16:49:06 10° S
USA 215 3.6 16:36:51 10° NE 16:43:18 64° NNW 16:49:45 10° WSW
NOSS 2-3 (E) 3.6 16:40:23 10° SW 16:44:25 81° NW 16:49:06 10° NE
SL-8 R/B 3.8 16:39:42 10° W 16:44:28 69° N 16:47:27 23° ENE
Feng Yun 1-1 Rocket 4.3 16:39:11 10° SSE 16:44:39 59° ENE 16:50:19 10° N
Spot 2 4.1 16:42:03 10° SSE 16:46:08 54° ENE 16:50:28 10° N
Cosmos 1980 Rocket 4.1 16:42:19 10° WSW 16:47:11 28° NW 16:52:05 10° N
Cosmos 332 Rocket 3.7 16:42:46 10° SSW 16:47:39 79° ESE 16:52:32 10° NNE
CZ-2C R/B 2.6 16:42:10 10° NNE 16:47:47 72° ESE 16:53:14 10° S
USA 229 DEB 3.6 16:43:17 10° SSW 16:49:32 63° ESE 16:56:10 10° NE
USA 229 3.6 16:43:24 10° SSW 16:49:38 63° ESE 16:56:14 10° NE
Okean-O 3.5 16:48:59 25° E 16:50:04 28° ENE 16:53:50 10° N
Meteor 1-11 4.4 16:44:31 10° NNW 16:50:09 78° W 16:55:48 10° S
Cosmos 1825 Rocket 4.2 16:49:21 10° N 16:53:13 31° ENE 16:54:06 28° E
OE (NEXTSAT) 4.2 16:50:44 10° WSW 16:54:09 80° S 16:55:18 39° E
H-2A R/B 2.4 16:51:45 10° SSE 16:55:58 63° ENE 17:00:02 10° N
Cosmos 2228 3.4 16:55:16 10° SSE 16:59:20 39° E 17:03:26 10° NNE
CSL-04 Rocket 4.4 16:57:22 25° ESE 16:59:33 33° ENE 17:04:28 10° N
Cosmos 1892 2.6 16:56:22 10° N 17:00:07 61° E 17:03:49 10° SSE
Cosmos 1758 Rocket 3.5 16:56:24 10° N 17:00:40 56° ENE 17:04:57 10° SSE
FALCON 9 DEB 3.7 17:00:26 10° SSW 17:02:45 33° SSE 17:02:45 33° SSE
ATLAS 3B R/B 4.4 16:59:51 10° WNW 17:05:04 23° NNW 17:10:30 10° NNE
Cosmos 1626 Rocket 4.1 17:01:09 10° NNW 17:05:24 58° W 17:09:38 10° S
Cosmos 1408 2.4 17:03:54 10° N 17:07:29 66° E 17:09:17 27° SSE
Cosmos 2100 Rocket 4.4 17:02:15 10° SSE 17:08:00 39° E 17:13:49 10° NNE
Cosmos 220 Rocket 4.0 17:05:41 10° SSW 17:10:06 85° WNW 17:14:32 10° NNE
H-2A R/B 3.3 17:05:05 10° S 17:10:14 45° W 17:15:29 10° NNW
Meteor 2-10 Rocket 3.6 17:05:57 10° S 17:11:29 89° W 17:16:51 10° N
SL-08 RB Rocket 3.6 17:07:12 10° SSE 17:11:47 90° N 17:16:26 10° NNW
NOSS 3-1 (A) 3.1 17:06:42 10° SW 17:12:00 88° SE 17:17:05 16° NE
Cosmos 1844 Rocket 2.6 17:07:03 10° NNW 17:12:40 87° ENE 17:17:53 12° SSE
X-37B 2.6 17:13:29 10° W 17:16:28 26° SSW 17:17:40 21° S
USA 267 4.0 17:11:34 10° SSE 17:17:52 50° SW 17:24:12 10° WNW
Cosmos 2173 Rocket 4.2 17:12:49 10° SSE 17:18:35 43° E 17:24:28 10° NNE
HJ-1C 3.5 17:19:13 58° N 17:19:13 58° N 17:21:57 10° N
Cosmos 2237 4.3 17:14:28 10° SSW 17:20:12 76° WNW 17:25:58 10° NNE
DMSP B5D2-2 4.0 17:17:23 10° NNE 17:22:37 64° ESE 17:27:46 10° S
CENTAUR R/B 4.2 17:16:26 10° NW 17:22:46 27° NNE 17:25:49 22° NE
MOS 1-B Rocket 4.4 17:19:06 10° N 17:25:34 64° WNW 17:31:15 10° SSW
Tiangong 2.9 17:25:38 10° WSW 17:28:04 24° SSW 17:28:04 24° SSW
YAOGAN 1 2.8 17:24:49 10° S 17:29:07 71° WSW 17:33:28 10° NNW
Cosmos 1605 Rocket 4.5 17:23:32 10° SSW 17:29:45 63° WNW 17:36:06 10° N
H-2A R/B 1.9 17:30:43 64° SE 17:30:43 64° SE 17:34:30 10° S
BREEZE-M R/B 2.7 17:28:17 10° WNW 17:31:42 78° SSW 17:32:42 51° SE
Cosmos 1455 4.0 17:30:32 10° S 17:31:46 20° S 17:31:46 20° S
NOSS 3-1 (C) 4.3 17:30:56 10° WSW 17:36:07 44° NW 17:41:23 14° NNE
COSMOS 2428 4.0 17:32:25 10° S 17:34:44 23° SSE 17:34:44 23° SSE
ATLAS 5 CENTAUR R/B 4.1 17:35:17 10° NW 17:37:42 15° NNW 17:40:18 10° NNE
Cosmos 44 3.8 17:32:28 10° SW 17:37:51 65° NW 17:40:55 26° NNE
Lacrosse 4 Rocket 3.6 17:35:33 10° NW 17:39:11 26° WSW 17:42:50 10° SSW
Cosmos 2278 Rocket 3.3 17:34:41 10° N 17:38:37 27° NNE 17:38:37 27° NNE
Cosmos 1140 Rocket 3.3 17:34:57 10° NNW 17:40:11 79° ENE 17:41:12 58° SE
Cosmos 1606 Rocket 3.8 17:36:38 10° S 17:45:48 - N 17:40:12 56° S
Cosmos 407 Rocket 3.4 17:36:42 10° NNW 17:42:04 86° ENE 17:43:30 51° SSE
Cosmos 1825 3.3 17:39:17 10° N 17:41:33 35° NNW 17:41:33 35° NNW
Cosmos 2333 4.0 17:38:15 10° SSW 17:43:51 77° ESE 17:45:49 42° NE
SL-16 R/B 3.8 17:41:28 10° WSW 17:46:31 33° NW 17:51:37 10° NNE
Cosmos 1023 Rocket 4.4 17:45:43 10° NNW 17:50:57 82° WSW 17:51:59 58° S
Cosmos 2322 Rocket 3.7 17:52:53 10° WSW 17:57:57 34° NW 18:03:04 10° NNE
Cosmos 2219 Rocket 2.5 17:57:07 10° SSW 18:01:21 53° S 18:01:21 53° S
CZ-4 R/B 3.4 18:02:02 10° SSW 18:05:30 27° W 18:09:03 10° NW
Cosmos 2360 Rocket 3.2 18:01:17 10° SW 18:06:42 45° NW 18:11:27 13° NNE
MetOp-A 4.5 18:05:21 38° SSW 18:07:17 63° WSW 18:12:38 10° NNW
Cosmos 2346 Rocket 4.5 18:07:13 10° N 18:13:30 82° W 18:14:41 61° S
Cosmos 2333 Rocket 2.3 18:11:21 10° SW 18:17:00 71° WNW 18:17:13 70° NW
USA 215 4.3 18:24:02 32° NNE 18:25:41 37° N 18:31:33 10° WNW
Okean-O 4.2 18:26:34 33° W 18:26:34 33° W 18:30:28 10° NNW
Cosmos 1943 Rocket 4.4 18:27:56 10° N 18:29:08 14° N 18:29:08 14° N
CENTAUR R/B 3.7 19:07:10 10° NW 19:12:59 49° N 19:12:59 49° N
Cosmos 2278 Rocket 4.3 19:18:27 10° NW 19:20:28 22° NW 19:20:28 22° NW
